Terminal Aerodrome Forecast
Issued by NWS Knoxville/Tri Cities, TN

Home | Current Version | Previous Version | Text Only | Print | Product List | Glossary On
Versions: 1 2 3 4 5 6 7 8 9 10 11 12 13 14 15 16 17 18 19 20 21 22 23 24 25 26 27 28 29 30 31 32 33 34
000
FTUS44 KMRX 221120
TAFCHA
TAF
KCHA 221120Z 2212/2312 00000KT P6SM SCT025 BKN040
     FM221400 14003KT P6SM SCT040 BKN100
     FM221700 15004KT P6SM VCTS BKN035CB
     FM222000 VRB03KT P6SM SCT040 BKN100
     FM230100 00000KT P6SM FEW045 BKN120=

USA.gov is the U.S. government's official web portal to all federal, state and local government web resources and services.